IRIDIUM 34 [-] (24969 NORAD) Tracking and Keplerian Element Data

This shows tracking and keplerian element data for the satellite.

Feedback or suggestion? Click here.




ElementValue
Catalog24969
NameIRIDIUM 34 [-]
Epoch Orbit6228
Epoch Day8.02445641
Epoch Year2018
RAAN230.1096
Inclination86.3612
Eccentricity0.003751
Argument of Perigee75.0937
Mean Anonmoly285.7049
Mean Motion16.45697571
Decay Rate0.28118293
L11 24969U 97056E 18008.02445641 .28118293 -13397-5 35827-3 0 9991
L22 24969 86.3612 230.1096 0037510 75.0937 285.7049 16.45697571 62280



Live tracking and technical data element details for IRIDIUM 34 [-] (NORAD 24969). IRIDIUM 34 [-] can be tracked NOW for your location showing map with azimuth and elevation plus other details from your city location.







IsCatalogInMostPopularTable: catalog: 24969, numindb: 381
Update: records affected: 1



GetName: 24969 IRIDIUM 34 [-]

Hit Count: updated at: Thu, 22 May 2025 04:34:35 GMT